Find Starlink 11530

NORAD ID: 62562 Int'l Des: 2025-006 Owner: SPXS Country: US Constellation: starlink operational
LEOCIRCULAR

Current View

Loading 3D Globe...

About Starlink 11530

Starlink 11530 (NORAD 62562) is a starlink constellation satellite (v2 mini d2c) launched Jan 10, 2025 by SPXS of US. It operates in LEO, CIRCULAR orbit with a mass of 960.00 kg.

About Starlink 11530

Description loading...

Upcoming Passes

Passes for default location (London). Set your location on the main map for personalized predictions.

Altitude History

Loading altitude history...

Two-Line Element Set

1 62562U 25006J 26168.29626723 .00123014 00000-0 94649-3 0 9990
2 62562 43.0002 259.8836 0002139 271.8337 88.2286 15.70878429 82262
Epoch: Jun 17, 2026 • Age: 24 hours

Current Status

Altitude 361.7 km
Velocity 7.69 km/s
Sub-Earth Point -26.83°S, 95.97°E
Launch Date Jan 10, 2025
Age 1.4 years
Type internet

Technical Details

Classification Payload
Mass 960.00 kg
Dry Mass 910.00 kg
Total Mass 960.00 kg
Length 0.30 m
Diameter 4.10 m
Span 29.00 m
Shape Box + pan
Manufacturer SPXS
Bus Type Starlink V2MD
Phase Status In Orbit
Owner/State SPXS/US

Most Searched